Location: Unspecified
(0.0000°N, 0.0000°E)
Time: 20:31:10
(UTC+00:00)

STARLINK-1283 - Visible Passes

Search period start: 12 January 2025 00:00
Search period end: 22 January 2025 00:00
Orbit: 546 x 548 km, 53.1° (Epoch: 12 January)

Date Brightness Start Highest point End Pass type
(mag) Time Alt. Az. Time Alt. Az. Time Alt. Az.
13 Jan 4.7 20:00:05 10° NW 20:02:47 38° WNW 20:02:47 38° WNW visible
14 Jan 5.0 19:54:00 10° NW 19:57:49 37° SW 20:01:39 10° SSE visible
15 Jan 6.0 19:48:08 10° WNW 19:51:29 24° SW 19:54:51 10° S visible
16 Jan 6.7 19:42:37 10° W 19:45:10 16° SW 19:47:44 10° SSW visible
17 Jan 7.3 19:38:23 10° WSW 19:38:52 10° SW 19:39:22 10° SW visible
19 Jan 3.7 05:45:58 10° SSW 05:50:06 83° SE 05:54:13 10° NE visible
20 Jan 3.6 05:39:41 10° SW 05:43:46 61° NW 05:47:49 10° NNE visible
21 Jan 7.0 03:57:02 10° SE 03:58:05 11° SE 03:59:08 10° ESE visible
21 Jan 4.1 05:33:36 10° SW 05:37:25 37° WNW 05:41:15 10° NNE visible
